RH
31 28 26 29 31 31 31 30 28 27 26 25 25 26 27 29 30 28 26 27 28 27 25 26 26 24 23 24 25 26 27 26 24 20 16 14 13 12 12 14 14 15 17 21 24 26 28 29 29 32 38 44 48 52 59 68 76 82 87 88 86 81 75 72 71 69 64 57 52 53 59 60 57 61
51 48 46 46 46 47 48 46 41 39 39 39 37 37 36 35 36 36 34 35 37 37 36 36 35 33 32 32 33 34 35 36 35 33 31 28 24 19 15 13 12 13 13 13 14 15 15 17 19 21 24 26 29 32 37 42 48 53 60 70 80 81 71 57 45 39 36 32 27 24 25 31 33 36
59 58 57 56 56 56 58 59 54 48 43 41 40 40 41 41 42 43 43 45 46 44 41 40 38 36 34 33 33 32 31 31 31 31 32 33 33 32 29 25 20 16 13 12 12 13 14 14 14 15 16 17 18 19 20 22 23 24 27 34 46 60 67 62 51 45 47 49 46 39 28 18 16 16
63 63 62 61 60 59 60 62 62 60 55 49 47 47 49 52 55 57 59 60 60 57 54 53 51 49 47 44 43 42 40 39 37 35 33 32 31 30 31 32 32 29 25 20 15 12 11 12 13 13 14 14 14 14 14 13 13 13 13 14 18 24 35 45 49 52 57 52 41 36 30 19 12 11
64 62 62 62 62 62 62 61 61 61 61 59 58 58 58 58 58 57 55 55 56 57 57 58 59 58 56 55 54 54 53 51 50 48 47 45 41 37 33 30 29 30 31 30 27 22 18 14 12 11 11 11 12 12 12 12 12 11 10 10 11 11 12 14 18 24 30 26 16 13 14 12 10 10
68 64 61 59 59 61 62 63 62 60 58 56 55 54 53 52 50 49 48 50 53 55 55 54 53 51 50 51 53 54 56 57 57 57 55 53 52 49 46 42 37 33 30 29 28 28 27 25 21 17 14 12 11 10 10 10 10 11 11 10 10 10 10 9 9 9 11 11 7 6 7 7 8 9
69 68 66 64 61 59 60 62 62 61 59 56 53 52 50 49 49 50 51 53 53 49 45 40 36 35 35 36 37 38 41 43 47 52 53 53 51 49 47 46 45 44 42 38 34 30 27 26 25 24 23 20 18 16 14 12 11 9 9 10 10 10 10 10 10 9 9 8 7 6 6 6 6 7
72 71 71 71 69 65 63 62 59 55 53 51 51 50 49 47 47 47 48 48 45 41 38 35 35 35 35 36 35 32 30 28 28 30 33 36 37 36 35 34 36 39 43 46 46 42 37 31 28 26 24 24 24 23 23 22 21 19 14 11 9 8 9 9 9 10 9 9 9 8 7 6 6 5
75 76 76 76 74 71 68 65 59 54 49 47 47 48 49 50 51 53 53 51 49 47 46 45 44 43 44 45 45 43 42 38 33 28 24 23 23 23 23 25 27 30 35 40 44 45 43 40 36 32 29 26 24 23 23 24 25 26 26 24 20 15 11 9 8 8 9 9 9 9 8 8 7 6
72 75 77 79 78 75 70 66 62 57 53 51 50 51 52 53 55 56 57 57 57 57 56 55 53 52 51 51 52 52 52 51 48 43 36 31 27 25 25 25 25 26 29 33 37 38 38 38 38 36 34 32 29 27 24 23 22 23 24 27 29 28 25 20 15 11 9 9 8 8 9 9 8 8
69 73 79 84 86 81 74 68 64 61 58 56 54 54 54 55 58 59 59 59 60 61 63 62 61 59 57 56 57 57 56 55 54 53 50 44 39 35 33 32 29 26 26 27 30 34 36 37 38 37 36 34 33 31 29 26 24 22 21 22 24 28 31 31 28 23 18 14 11 9 9 8 8 8
63 71 79 86 91 89 83 77 71 67 65 63 61 59 59 59 59 60 60 60 60 63 66 67 65 62 60 59 59 58 56 55 53 53 53 51 46 42 39 37 34 28 24 23 23 26 30 34 35 36 36 36 35 34 33 31 29 26 23 21 21 22 26 30 33 33 30 26 21 16 13 11 10 8
52 56 63 72 81 87 88 87 84 81 79 78 75 73 70 68 66 63 61 61 64 68 69 69 68 66 65 64 62 59 56 54 54 54 53 50 45 41 36 32 28 24 21 19 18 17 19 22 23 25 25 26 29 31 31 32 32 31 28 25 21 20 21 24 28 31 33 34 32 28 23 19 16 13
48 45 47 52 59 65 71 75 78 79 80 80 78 76 72 67 61 57 55 57 63 67 70 75 78 77 71 64 60 61 62 62 60 55 48 41 34 30 25 21 19 18 16 15 15 15 14 15 15 16 16 16 18 21 24 27 29 30 31 29 26 22 20 20 23 26 29 32 34 35 33 29 25 22
47 45 46 46 47 49 50 51 53 54 56 56 55 54 50 45 41 40 43 48 52 56 67 80 86 83 70 56 53 61 67 63 52 41 32 26 22 20 19 17 16 16 15 14 13 13 14 15 14 14 14 14 14 15 16 19 22 24 27 29 29 26 23 20 19 21 24 26 28 31 34 35 33 30
47 48 49 48 47 45 42 40 39 36 35 35 34 32 31 29 28 29 33 37 38 45 60 72 74 70 56 41 39 47 50 42 31 24 21 19 17 17 16 16 15 15 15 14 13 13 13 14 14 15 15 14 15 15 15 15 15 17 20 23 26 28 27 24 21 19 19 21 23 25 27 31 34 35
47 47 45 41 38 35 33 31 29 27 25 24 25 25 24 23 23 23 24 26 26 31 41 45 45 44 36 26 25 27 26 23 20 19 19 18 18 17 17 16 16 15 15 15 14 14 14 14 14 15 15 15 15 16 17 17 15 14 14 15 19 22 25 26 25 22 19 18 18 20 21 22 25 29
41 39 36 35 33 31 29 27 25 23 22 20 21 21 20 20 20 20 20 21 20 22 25 26 25 25 23 20 20 20 20 20 19 19 19 18 18 18 17 16 16 16 16 16 15 14 15 15 15 15 15 15 15 16 18 18 17 15 14 14 14 18 21 24 25 25 24 21 19 18 19 20 20 20
36 36 35 35 34 33 32 30 27 24 22 20 20 20 20 19 19 19 19 19 20 20 20 21 20 20 20 20 20 20 20 20 20 20 20 19 18 18 17 16 15 15 15 15 15 15 14 15 15 15 15 15 14 16 19 21 20 19 19 17 16 17 20 22 25 26 26 25 23 20 19 19 19 19
37 37 36 36 35 34 33 31 30 28 26 25 24 22 22 22 21 21 21 20 21 22 21 22 21 22 22 22 22 22 22 22 22 21 21 20 19 18 17 16 15 14 14 14 14 14 14 14 14 14 15 14 14 17 21 23 23 24 23 22 21 21 21 22 25 25 26 26 25 23 21 20 19 19
39 39 38 37 36 34 34 32 31 31 29 29 28 27 26 25 24 24 24 24 24 24 24 24 24 24 24 24 25 25 24 24 24 23 22 21 20 18 17 16 15 15 14 15 18 19 17 16 17 17 17 18 18 21 24 25 24 25 25 24 24 24 23 22 23 24 24 24 24 24 22 21 20 20
42 41 40 40 39 38 37 35 33 33 31 31 31 30 30 30 30 29 29 29 29 28 28 28 28 28 28 28 28 27 27 27 25 24 22 20 19 17 17 16 15 15 17 20 25 28 25 23 24 24 23 23 23 24 25 25 24 24 24 23 23 23 23 23 22 22 22 22 22 22 21 21 20 19
43 43 42 42 41 40 39 39 38 36 35 35 34 34 34 33 32 32 31 31 30 30 29 28 27 27 26 25 25 23 23 24 23 21 19 18 18 18 17 18 19 22 26 29 30 30 27 25 24 22 20 20 21 20 20 20 20 20 20 20 19 19 19 20 20 20 20 20 20 20 19 19 19 19
44 43 42 40 38 37 37 37 37 38 38 39 39 37 36 34 33 32 31 30 30 29 28 27 27 26 24 23 22 21 21 21 19 18 17 19 21 20 19 23 29 33 33 30 24 21 19 17 15 14 14 14 14 14 15 15 16 16 16 16 15 15 15 15 15 16 16 17 17 17 17 18 17 17
44 43 40 37 35 34 32 32 33 35 37 39 40 40 40 38 36 36 35 35 35 34 33 32 30 29 28 26 25 22 20 19 18 18 20 21 23 25 28 33 34 31 24 17 14 12 12 11 11 11 11 11 10 11 11 11 11 12 12 12 12 12 12 12 12 12 12 13 13 12 13 14 14 15
45 41 37 33 31 30 30 30 31 33 35 37 39 40 40 40 40 40 39 38 36 34 32 31 29 28 27 25 23 20 18 17 19 22 24 27 31 33 33 30 24 17 12 11 12 13 12 12 12 12 12 11 11 10 10 10 10 9 10 10 10 10 11 11 11 11 11 11 10 10 10 10 10 11
43 38 33 30 29 30 31 32 32 33 35 35 35 35 35 35 35 34 33 31 29 27 25 23 22 21 21 20 18 16 16 21 27 31 33 34 32 28 22 16 13 12 13 15 17 18 18 17 18 18 18 16 15 13 12 12 12 11 11 11 11 12 14 14 13 12 12 12 11 11 11 10 11 11
40 36 33 31 31 32 33 34 34 34 33 32 29 27 25 25 24 24 24 23 21 20 20 19 18 19 18 18 19 21 26 33 36 35 30 25 19 15 13 13 14 16 19 21 23 26 27 27 27 28 28 26 24 21 20 20 21 20 19 17 17 19 21 20 18 16 16 16 16 15 15 13 13 12
39 38 36 36 36 36 36 36 36 35 33 30 25 23 22 22 22 21 20 19 19 20 21 21 21 23 26 29 33 36 36 34 28 22 17 14 13 15 16 18 20 23 28 31 34 37 39 39 39 39 39 38 37 35 35 35 34 34 33 32 31 32 33 32 29 27 27 25 24 25 24 23 22 19
43 41 41 41 41 41 40 39 37 35 32 29 27 27 27 25 22 19 19 21 24 25 27 30 33 38 41 41 37 32 25 19 16 14 14 16 19 21 23 25 30 36 42 45 47 49 50 51 52 52 52 53 54 56 57 56 53 52 51 50 47 46 48 50 48 45 45 43 40 38 37 37 36 32
42 42 42 42 43 43 41 38 35 33 33 34 34 32 26 22 21 21 23 26 30 35 41 45 46 43 37 29 22 17 15 16 19 21 23 25 29 33 37 40 44 48 53 58 62 64 66 68 71 73 75 77 79 81 82 78 74 72 70 68 65 62 63 66 65 63 62 60 57 55 55 54 52 48
42 43 43 42 40 38 35 34 35 37 39 40 36 27 21 22 25 28 32 37 43 48 48 43 34 25 19 16 16 18 21 25 29 33 37 40 44 48 51 52 55 61 68 77 83 86 87 89 90 90 91 91 90 91 92 90 88 87 86 83 79 75 75 77 78 79 78 74 71 72 72 69 68 66
42 42 42 40 36 33 34 36 38 40 41 38 32 25 24 30 37 44 49 49 46 39 31 23 18 17 18 21 25 28 32 38 44 49 53 55 57 59 60 64 72 81 87 91 93 94 94 95 96 95 94 91 89 89 90 89 90 93 94 91 87 83 83 85 85 86 86 83 81 82 81 80 81 80
38 36 34 33 32 33 36 38 40 40 39 34 31 33 40 49 55 55 49 38 27 20 18 18 20 23 26 31 36 42 47 53 58 62 64 66 66 68 72 80 88 93 92 90 88 89 92 95 97 97 95 92 90 90 89 89 91 93 93 93 92 90 89 90 89 88 89 89 87 86 86 87 89 88
34 30 30 32 35 38 41 42 43 40 38 40 49 58 63 60 51 38 26 20 19 20 23 25 27 31 36 42 50 56 60 65 70 72 73 74 76 80 86 89 90 90 90 89 88 90 94 97 97 95 93 90 88 90 94 97 97 95 92 91 93 94 93 91 89 90 93 96 95 92 91 93 94 95
31 32 35 38 41 44 46 45 43 44 50 62 70 66 54 39 28 21 20 23 25 26 28 32 36 42 49 56 64 69 73 76 78 79 80 83 86 88 89 88 89 91 91 90 90 93 94 92 90 87 85 84 84 89 96 100 101 100 96 92 93 96 94 91 90 91 94 96 97 97 97 98 98 99
35 38 39 40 43 46 46 47 55 66 73 71 58 41 28 23 22 24 26 27 28 31 35 40 46 54 62 69 74 79 82 84 83 84 87 90 91 89 88 89 93 93 89 88 92 95 91 85 84 84 83 81 82 87 95 100 101 101 98 95 95 98 97 94 95 95 92 92 96 98 99 100 100 100
39 40 42 45 49 51 55 66 78 81 67 47 31 23 22 24 26 27 29 31 34 39 44 50 58 66 71 76 80 84 87 87 87 90 94 95 93 91 91 92 91 87 85 90 96 95 88 84 87 90 88 86 85 88 93 98 100 101 98 95 95 97 97 96 96 94 91 93 98 100 100 100 100 100
39 42 49 55 59 67 76 81 75 58 38 26 24 24 25 26 27 30 34 37 41 46 53 60 69 74 77 80 85 88 90 90 91 94 96 96 95 94 92 91 87 83 86 94 96 91 87 88 92 94 93 92 91 93 95 98 100 101 97 93 92 94 94 90 89 90 93 98 101 100 99 100 100 100
42 51 58 63 74 87 87 70 47 31 25 25 26 25 26 28 30 33 38 42 47 54 62 68 73 77 81 85 89 91 92 93 94 95 95 95 96 95 91 87 84 81 84 90 93 92 91 91 94 95 93 91 91 93 97 100 101 100 97 91 88 91 90 85 85 92 98 100 100 100 100 100 100 100
54 62 67 77 90 91 72 44 29 26 26 25 25 26 27 29 31 37 43 47 53 61 67 70 74 78 82 86 89 92 93 94 96 96 94 95 96 94 90 87 84 82 84 89 94 97 97 96 97 97 94 93 91 91 95 100 100 100 98 92 85 84 84 84 89 96 100 100 100 100 100 100 100 100
66 68 79 93 92 72 45 30 27 27 25 24 26 28 27 29 35 43 48 52 58 65 68 69 72 75 79 83 88 92 93 93 95 96 95 94 93 92 92 91 86 84 88 92 96 99 100 99 99 99 98 98 94 88 91 99 101 99 99 96 89 85 85 88 93 98 100 100 100 100 100 100 100 100
70 76 92 93 71 45 31 28 27 25 23 25 27 26 27 32 40 46 51 55 60 64 65 66 69 72 75 79 85 90 93 93 93 93 92 91 89 88 91 91 87 88 94 97 96 98 100 100 100 100 100 101 97 88 87 95 100 100 100 100 95 92 92 94 96 98 100 100 100 100 100 100 100 100
82 92 91 69 43 31 29 26 24 22 23 24 25 24 27 34 41 46 51 55 59 60 61 64 66 68 70 74 79 86 91 92 92 92 92 91 91 91 92 91 90 93 98 96 92 94 97 99 100 100 99 101 98 90 85 91 99 101 101 101 99 98 97 97 97 98 100 100 100 100 100 100 100 100
95 86 64 41 30 29 26 22 22 22 21 22 23 23 25 32 38 43 48 54 58 58 58 61 63 64 65 68 73 80 86 90 93 95 95 94 95 96 95 93 92 96 100 97 91 90 94 97 100 100 99 100 99 91 85 89 97 100 100 101 100 100 100 100 100 100 100 100 99 100 100 100 100 101
Wind_Speed
8 7 6 6 5 5 5 5 4 3 3 3 3 3 3 3 3 4 4 5 5 5 6 6 7 7 8 8 9 9 10 10 10 10 10 10 11 11 11 11 11 11 12 12 12 13 14 14 14 13 13 12 11 12 13 15 17 19 21 22 22 22 21 21 21 22 22 22 22 23 24 25 25 26
6 5 4 4 3 3 4 4 3 3 2 2 2 2 2 2 3 4 4 5 5 6 6 7 8 9 9 10 11 11 12 12 12 12 12 12 12 12 12 12 12 12 12 13 13 13 13 14 14 14 14 13 13 13 14 15 16 17 18 20 21 22 23 23 22 21 22 23 23 24 25 26 26 28
5 4 2 2 1 1 1 1 1 1 1 0 1 2 2 3 3 4 5 5 6 6 7 7 8 9 10 11 11 12 13 14 15 15 14 14 14 14 14 14 14 14 15 14 14 14 14 15 15 15 15 15 15 15 15 16 16 17 17 18 19 21 22 24 24 24 24 24 24 24 25 26 27 27
3 2 1 0 1 2 2 2 2 2 3 3 3 3 4 4 5 6 7 7 7 8 9 9 10 11 12 13 13 14 15 16 17 18 18 18 17 17 16 16 16 16 16 17 17 17 17 17 17 17 17 17 17 17 16 16 16 17 17 18 19 19 20 22 23 25 25 25 25 25 27 27 28 28
1 1 1 2 3 4 5 5 5 5 6 6 6 6 7 7 8 8 9 9 9 9 10 11 12 13 14 14 15 15 16 17 18 19 20 20 20 20 19 19 18 18 18 18 18 18 19 19 19 20 20 20 21 21 20 20 20 19 19 19 19 20 20 21 21 22 23 24 24 25 26 28 29 29
5 5 5 6 6 6 7 8 8 9 9 9 9 9 9 10 10 11 11 11 12 12 13 14 15 15 16 16 16 17 17 18 18 19 20 20 21 21 22 21 21 20 20 20 20 20 20 20 20 21 22 22 23 23 24 24 24 24 24 23 23 23 23 22 23 23 23 23 24 25 25 26 27 27
8 8 9 9 9 9 9 9 10 10 10 11 11 12 12 13 13 13 13 14 15 15 16 16 16 16 16 16 17 18 18 19 20 20 20 21 21 22 22 23 23 23 22 22 22 21 21 21 21 21 22 22 23 24 25 25 26 26 26 26 26 26 26 25 25 25 25 24 25 25 25 25 26 26
9 10 10 11 11 12 11 11 11 12 12 12 12 13 13 13 14 14 14 15 16 17 18 18 18 18 17 17 17 18 18 19 20 20 21 21 22 23 23 24 24 25 25 25 25 24 24 23 22 22 22 22 23 24 25 26 26 26 26 27 27 27 27 27 27 27 27 26 26 26 25 25 25 25
10 11 11 12 12 13 14 14 14 13 14 14 14 14 14 14 15 15 16 17 18 18 20 21 22 22 22 21 21 21 20 20 20 20 21 21 22 23 24 25 25 26 26 26 26 27 27 27 26 25 24 24 24 25 25 26 26 26 27 27 27 28 28 28 28 28 28 28 28 27 27 26 25 25
11 11 12 13 13 13 14 15 15 15 15 15 15 15 16 17 17 18 19 20 21 22 23 24 25 25 26 26 26 25 24 23 23 22 22 22 22 23 24 25 25 26 27 27 28 28 29 29 29 29 28 27 27 27 27 27 27 27 28 28 28 28 29 29 29 28 28 29 29 29 29 28 27 26
10 10 12 13 14 14 14 15 15 16 16 16 16 17 18 20 21 21 22 24 25 26 27 28 28 28 28 28 28 28 27 26 26 25 25 24 24 25 25 26 26 27 27 28 29 30 30 31 31 31 31 31 30 30 29 29 29 29 28 29 29 29 29 30 30 29 29 29 30 30 30 30 29 28
9 9 10 12 14 15 16 16 16 17 17 18 19 20 21 23 24 25 26 27 29 30 30 30 30 30 29 28 28 29 29 30 30 29 28 27 27 26 27 28 28 28 28 28 29 30 31 32 32 32 33 33 33 32 32 32 31 31 30 30 30 30 30 30 30 30 30 30 30 30 31 31 31 30
10 10 10 11 13 15 17 19 20 21 21 22 22 23 24 26 27 28 29 30 31 31 31 31 32 31 29 28 29 30 31 32 32 31 31 31 30 29 29 29 30 30 30 29 30 31 31 32 33 33 34 34 34 34 34 34 33 33 33 32 32 31 31 31 31 31 31 31 30 30 30 31 31 31
12 13 13 13 14 15 17 18 20 22 23 24 24 25 26 28 29 30 30 31 31 31 31 30 31 32 32 31 30 31 32 31 31 32 32 32 32 31 31 31 31 32 32 31 31 32 33 33 34 35 35 35 35 36 36 36 35 35 34 34 34 33 33 33 33 32 32 32 32 31 31 31 31 32
15 15 15 16 17 18 19 20 21 22 23 25 26 27 28 29 30 31 31 31 31 31 30 29 29 32 36 36 33 31 31 30 31 32 32 33 33 33 33 33 33 34 34 33 33 33 34 36 36 36 36 36 36 36 36 36 36 36 36 35 35 35 35 34 34 34 34 33 33 33 33 32 32 32
17 18 19 20 20 21 22 22 23 24 25 26 27 28 30 31 31 31 31 32 32 31 30 30 31 34 38 38 34 30 30 31 32 33 34 35 36 36 36 36 36 36 36 36 36 35 36 37 37 37 37 37 36 36 36 37 37 37 37 37 36 36 36 36 36 36 36 36 35 35 34 34 34 34
19 20 21 21 21 22 22 23 23 24 25 26 27 28 30 31 32 32 32 33 33 32 32 33 34 36 39 38 34 30 30 32 34 35 36 37 38 39 39 39 38 39 39 39 38 36 36 38 38 37 37 38 37 36 36 36 37 37 37 37 37 37 37 37 37 37 37 37 37 37 37 36 36 35
20 21 21 22 23 23 24 24 25 25 25 26 27 28 29 31 31 32 33 33 33 33 34 35 36 37 38 39 37 34 34 36 37 38 38 39 40 40 40 40 39 40 40 41 41 40 38 39 40 39 37 37 37 36 36 37 37 37 36 37 37 38 38 38 38 38 38 38 38 39 39 39 39 38
20 22 23 24 25 26 27 27 27 27 27 27 27 28 29 30 31 32 33 33 33 33 34 36 37 38 39 39 39 38 39 40 40 40 40 41 41 42 42 41 41 41 41 41 43 43 41 40 42 41 39 38 37 36 36 36 37 37 37 37 37 37 38 37 37 38 38 38 39 39 39 40 41 41
22 24 25 26 27 27 28 28 28 29 29 29 29 30 31 31 32 33 34 34 34 35 36 38 39 39 40 40 40 40 40 41 41 41 42 42 43 43 44 43 42 42 42 41 42 44 44 42 43 43 41 40 38 37 36 36 36 36 37 37 37 37 38 37 37 37 38 39 39 40 40 40 41 41
25 26 26 27 27 28 28 29 29 30 30 31 31 32 33 33 34 34 35 36 37 37 38 39 40 40 40 40 40 40 40 41 41 42 43 44 44 45 45 46 45 44 43 42 41 42 44 43 43 43 42 40 39 37 36 37 37 37 37 37 37 37 38 38 37 37 37 38 39 40 41 41 41 42
26 27 28 28 28 29 29 30 30 30 31 31 32 33 33 34 34 35 36 37 37 38 39 40 40 41 40 40 41 41 42 42 43 43 44 44 45 45 46 46 46 45 44 42 40 40 43 43 42 41 41 40 39 37 36 36 37 37 37 37 37 37 38 37 37 37 37 37 38 39 40 41 42 42
28 29 29 30 30 30 30 30 31 31 31 32 32 33 33 34 35 35 36 37 38 39 39 40 41 41 42 42 43 43 43 44 44 44 44 44 44 44 44 44 45 44 44 42 39 39 41 41 40 39 40 39 38 37 36 36 36 36 37 37 38 38 38 38 38 37 37 37 37 38 39 40 41 41
31 31 31 31 31 31 31 31 31 31 32 32 33 33 34 35 36 37 37 39 39 40 41 42 43 43 43 44 44 44 44 44 44 44 44 43 44 44 44 44 44 44 43 42 40 40 40 41 40 39 40 41 39 38 37 37 37 37 37 37 38 39 40 40 39 39 39 38 38 38 39 40 40 41
32 33 32 31 31 31 31 31 32 32 32 33 34 35 36 37 38 39 40 41 42 43 44 44 45 45 45 44 44 44 44 43 43 43 43 43 43 43 44 44 44 44 44 43 42 42 42 43 42 42 43 43 43 42 40 39 39 39 39 39 40 40 41 42 42 41 41 40 40 39 40 40 41 41
33 32 31 31 31 31 31 32 32 33 34 35 36 36 37 39 40 41 43 43 44 45 45 45 45 45 44 44 44 43 42 42 42 42 42 42 42 43 44 45 45 46 45 45 45 45 46 46 46 46 46 46 46 46 46 44 43 43 43 43 43 43 43 44 44 44 44 43 43 42 42 42 42 43
32 31 30 31 31 31 32 32 33 34 35 36 37 38 39 40 42 43 44 45 45 45 45 45 44 43 43 42 41 40 40 40 41 41 41 42 42 43 44 45 46 46 47 47 47 47 48 48 48 48 49 49 49 49 49 49 48 47 46 46 45 45 44 45 45 45 45 45 44 44 44 44 44 44
31 31 30 30 31 31 32 32 33 35 36 37 39 40 41 42 42 43 43 43 43 43 42 41 40 39 38 38 38 38 39 39 40 41 42 42 43 43 44 45 46 46 47 47 48 48 48 49 49 49 49 50 51 51 51 50 49 49 48 47 46 44 44 45 46 46 45 45 45 45 45 45 45 45
31 31 31 31 31 32 33 33 35 36 38 40 41 41 42 41 40 40 39 39 38 37 36 35 34 34 34 35 36 38 39 40 41 41 42 43 43 44 45 45 46 46 46 46 47 47 47 47 47 47 48 48 48 48 48 47 47 46 46 46 44 42 41 42 43 44 44 44 44 44 44 44 45 45
32 32 32 32 33 34 34 35 37 38 40 41 41 40 39 38 37 36 35 34 33 32 32 31 32 33 34 36 37 38 39 40 41 42 43 43 44 44 45 46 46 45 44 44 44 43 43 43 42 42 42 42 42 41 41 41 41 41 41 41 41 39 36 35 36 38 39 39 41 41 42 42 42 43
34 33 33 33 34 34 35 36 37 38 39 38 38 37 36 35 34 33 32 31 30 30 30 31 33 34 35 36 37 38 39 40 41 42 43 44 44 44 44 44 43 41 39 37 36 36 36 35 34 33 33 33 32 32 32 33 34 34 34 34 34 33 31 28 29 31 33 34 36 38 38 39 40 41
34 33 32 32 32 33 34 35 36 36 36 35 35 34 33 32 31 30 29 28 28 29 31 32 33 34 35 36 37 38 39 40 40 41 42 43 43 43 42 40 37 33 30 26 25 26 27 28 28 28 29 29 29 29 29 29 29 29 28 28 27 27 26 24 24 26 28 31 33 34 35 35 36 36
30 30 30 31 31 31 32 33 34 34 34 33 32 31 30 29 27 26 26 27 28 29 31 32 33 34 35 36 37 38 39 39 39 39 40 40 39 38 36 32 27 24 21 19 20 22 24 26 28 28 28 29 29 28 29 28 26 25 25 25 24 23 21 21 22 23 25 28 30 30 31 31 31 32
30 30 30 30 30 30 31 31 32 32 32 30 28 27 25 25 25 25 26 27 28 29 30 32 33 34 35 36 37 37 38 38 37 36 36 35 33 31 27 22 19 18 18 18 20 22 23 25 27 28 28 28 27 26 28 28 26 23 23 22 22 20 19 19 20 21 22 25 27 27 27 26 25 26
30 30 29 29 28 28 29 29 30 29 27 25 23 22 22 23 24 24 25 26 27 29 30 31 33 34 35 35 35 35 35 35 33 31 29 28 26 23 19 16 15 16 18 19 21 22 23 24 26 27 27 26 25 23 24 25 25 23 22 21 20 19 18 17 19 20 20 22 24 24 21 17 16 17
28 28 27 26 26 27 27 28 27 24 22 20 20 20 21 22 23 23 25 26 27 28 30 31 32 33 33 34 34 33 32 30 27 25 23 21 20 17 15 16 16 17 18 20 22 24 25 25 27 27 25 23 21 20 20 21 22 21 21 21 21 19 18 17 18 18 18 18 18 16 12 9 10 13
26 25 25 25 26 26 26 24 21 18 17 18 19 19 20 21 22 23 24 25 26 28 29 30 30 31 32 32 32 30 27 24 21 19 18 18 17 16 17 17 17 17 18 21 23 24 24 24 25 26 24 22 22 21 20 19 18 19 20 21 20 18 16 15 15 15 14 13 12 10 7 7 8 11
24 24 24 25 25 23 20 18 16 16 16 17 18 18 19 20 21 21 23 24 26 27 28 28 29 30 31 31 30 27 23 19 17 17 17 17 16 17 17 16 16 17 19 21 21 21 21 22 23 24 24 24 24 23 20 17 15 15 18 19 17 15 13 11 10 11 11 11 11 10 9 8 8 9
22 23 24 24 21 17 16 15 15 16 16 17 17 17 18 19 19 20 22 24 25 26 26 26 28 30 31 31 29 25 20 17 15 16 16 17 16 16 15 15 16 18 18 18 19 19 19 19 20 21 22 23 24 23 21 17 13 13 16 17 15 13 11 9 7 9 11 11 11 11 9 8 8 8
22 23 23 19 15 13 13 14 14 15 16 16 16 16 17 17 18 20 22 23 23 23 23 25 27 29 30 30 28 24 19 16 16 16 16 16 16 15 14 14 16 17 16 16 16 17 17 17 18 19 20 22 22 22 20 17 14 13 15 15 12 11 9 7 7 9 10 11 10 9 7 7 7 8
22 22 19 15 13 13 13 14 14 15 15 14 14 15 16 16 18 19 21 22 21 22 22 24 26 27 28 29 27 23 19 16 16 16 16 16 14 14 14 15 15 15 15 15 15 16 17 18 17 18 19 20 21 21 19 17 15 14 15 14 12 10 8 7 8 10 10 9 9 7 7 7 8 9
21 19 15 13 13 13 14 14 14 13 13 12 13 14 15 16 17 19 19 20 20 21 22 23 25 26 28 28 27 24 20 17 16 16 17 16 15 14 14 14 14 14 15 16 16 17 19 19 18 18 18 19 21 21 19 17 15 14 14 13 12 10 9 8 8 9 8 7 7 6 7 8 8 8
18 15 13 12 13 13 14 13 12 11 11 11 12 13 14 15 16 17 17 18 19 20 21 22 23 25 27 27 26 23 20 18 17 16 16 17 16 15 13 12 12 14 15 16 17 18 18 18 19 18 18 18 19 19 18 17 14 13 13 12 11 11 10 8 7 7 7 7 6 7 7 7 7 6
14 13 13 12 13 13 13 11 10 10 10 10 11 12 13 13 14 15 16 16 18 20 21 22 22 23 25 26 25 23 21 19 17 16 16 16 15 14 12 11 11 13 14 15 17 19 19 18 18 17 16 16 17 17 17 16 14 12 11 11 10 10 9 8 7 7 7 7 7 7 7 5 4 4
14 13 12 13 13 12 10 9 8 9 8 8 10 12 12 12 12 14 14 15 17 19 20 21 21 22 23 24 24 23 21 19 17 16 15 14 14 13 12 12 11 12 13 15 17 19 20 18 16 15 14 14 15 16 16 15 13 11 9 8 6 6 7 7 7 8 8 8 7 6 4 2 2 3
Wind_Direction
86 87 89 91 91 87 83 81 77 77 82 90 94 89 85 73 53 35 26 19 15 12 7 1 357 353 350 346 342 337 334 331 327 322 318 313 309 307 304 300 296 292 289 284 279 278 279 281 284 287 287 283 280 282 281 279 275 271 268 264 260 255 253 253 251 252 255 255 256 257 257 258 258 258
88 87 85 85 86 82 81 79 75 73 61 50 48 47 50 52 44 30 20 14 9 7 4 358 354 350 347 344 342 338 335 333 331 328 324 319 314 309 304 300 296 292 290 288 285 283 282 281 281 280 279 276 272 271 272 274 276 277 276 273 268 261 255 252 250 250 253 256 258 260 261 261 260 260
88 94 94 92 93 90 93 98 99 105 103 37 355 353 358 2 3 359 357 356 352 349 347 344 342 339 338 337 336 334 333 332 332 330 328 325 321 315 310 305 301 297 294 291 289 287 284 283 282 281 279 277 275 272 270 271 272 273 274 274 272 268 263 257 253 253 256 260 262 264 266 267 266 265
76 81 100 174 247 258 260 254 248 249 245 247 263 282 299 310 317 319 320 320 320 321 321 322 322 323 323 323 324 324 325 326 326 326 326 325 323 320 317 312 308 304 300 296 292 289 286 284 281 280 280 280 279 278 276 275 275 274 274 273 271 270 268 264 259 257 259 261 263 264 266 267 268 268
335 318 288 268 265 264 266 267 265 264 262 260 262 269 278 286 292 296 298 299 300 303 307 309 311 312 312 313 314 315 316 317 319 319 319 319 319 317 316 314 312 308 305 301 297 292 289 286 283 281 280 280 280 280 279 279 278 278 277 276 275 273 272 270 267 264 262 263 264 263 263 263 265 266
269 273 274 272 271 271 272 275 276 274 273 272 273 275 280 284 287 288 290 293 297 300 303 305 306 307 308 308 308 309 310 311 311 311 311 311 311 310 310 309 308 307 305 303 300 296 293 289 286 284 282 281 281 280 280 279 278 278 277 276 276 275 274 274 273 272 269 267 267 266 264 264 264 264
260 265 268 268 269 272 275 280 284 285 284 282 282 284 288 291 292 292 293 296 300 304 306 307 308 308 308 308 307 306 305 305 304 304 304 304 304 304 303 303 303 302 301 301 300 298 295 293 290 287 285 283 282 281 280 279 279 278 277 276 275 274 273 273 272 272 272 271 271 270 268 267 266 265
263 267 269 268 268 270 272 275 279 283 288 289 289 291 295 298 299 300 301 303 305 307 308 309 310 310 310 310 309 308 307 306 305 303 303 302 302 301 300 300 300 299 298 298 297 297 295 294 292 289 287 285 284 282 281 281 280 279 278 276 275 274 273 272 271 271 271 271 271 271 271 270 269 268
269 272 272 269 266 268 272 275 277 280 284 287 291 294 297 300 301 303 304 304 305 306 307 308 309 309 310 310 310 309 309 309 308 307 305 304 303 302 301 300 298 297 297 296 296 295 295 294 293 291 289 286 285 283 282 281 281 280 279 277 276 275 275 274 273 272 271 271 271 271 271 271 270 270
278 278 276 271 267 267 270 274 278 281 284 286 289 292 294 296 297 298 301 303 304 305 306 306 306 307 309 310 310 309 308 308 308 307 306 305 304 304 303 301 299 297 296 295 294 294 293 293 293 292 291 289 287 286 284 283 281 280 279 279 278 277 276 275 274 273 272 272 272 271 271 270 270 269
280 279 277 274 269 269 271 274 277 280 283 286 288 291 293 294 295 296 299 302 303 303 303 304 304 305 307 308 308 307 308 308 308 307 306 305 305 304 303 302 301 299 297 295 294 292 291 291 290 290 290 290 290 288 287 285 284 282 280 279 278 278 277 276 275 273 272 272 272 272 272 272 270 268
272 272 272 270 266 265 266 268 272 275 278 282 285 287 289 289 291 293 295 297 298 299 299 300 301 302 304 304 304 304 305 306 307 307 306 305 304 303 302 300 300 299 298 296 294 291 289 288 288 288 288 289 289 288 288 287 286 284 282 280 278 277 276 276 276 275 273 271 270 270 271 272 272 270
269 270 269 268 265 263 263 264 267 271 274 278 281 283 284 285 287 289 290 292 294 294 296 297 298 299 299 299 299 301 302 303 303 303 303 303 303 303 301 300 299 299 299 298 296 293 290 288 287 287 286 287 287 286 286 285 285 284 283 281 279 277 275 275 274 274 274 272 270 269 269 269 271 271
267 270 272 272 271 270 270 270 271 272 274 277 280 281 282 284 285 287 289 291 292 294 296 297 297 297 296 297 299 301 301 301 302 302 302 302 302 302 302 301 301 300 300 300 298 296 294 292 291 289 288 286 285 284 284 283 283 282 281 280 278 277 275 274 273 272 272 272 271 269 268 267 268 269
263 269 275 279 280 280 280 278 278 279 279 280 281 281 282 284 286 288 290 291 292 293 295 295 294 294 295 299 303 304 301 301 301 302 302 302 302 302 301 301 301 300 299 299 297 296 294 293 292 291 290 288 286 285 283 282 281 280 279 278 277 276 274 273 271 270 269 269 269 269 268 267 266 266
269 276 282 286 288 288 288 287 286 285 284 284 284 284 285 287 288 289 290 291 292 294 293 293 292 292 295 301 306 304 300 300 300 301 301 301 301 301 301 300 300 299 298 297 295 294 293 291 291 290 290 289 288 286 284 282 280 279 278 277 276 274 272 271 270 269 268 267 267 266 266 266 265 264
278 283 287 291 292 292 291 290 289 287 286 286 286 286 287 288 289 290 290 291 292 294 294 294 294 295 298 303 306 305 301 299 299 300 300 300 300 299 300 300 299 299 298 296 295 294 292 290 289 288 288 289 288 287 285 282 280 278 277 275 274 273 271 270 269 268 267 266 266 265 265 264 264 264
282 285 288 290 291 291 291 290 289 288 287 286 286 286 287 288 289 289 290 291 292 294 295 295 295 298 301 303 304 304 302 299 299 299 299 299 299 299 299 300 300 299 298 298 297 295 293 291 289 288 287 286 286 285 284 282 281 279 277 275 273 271 270 269 268 267 267 266 265 265 264 264 264 263
282 284 287 288 288 288 288 288 289 289 289 289 288 287 287 287 288 288 289 291 293 294 294 294 296 298 299 300 300 300 299 298 299 299 299 299 299 299 299 299 299 298 298 297 297 295 294 291 289 288 287 286 285 284 283 281 279 279 277 275 273 271 270 268 267 266 265 265 265 264 263 263 263 263
283 285 286 286 285 285 285 286 287 287 288 289 289 288 288 288 288 289 290 291 292 292 292 293 294 295 296 296 297 297 296 297 299 299 298 298 298 298 298 298 298 298 298 297 297 296 294 292 290 289 288 287 285 284 282 280 278 277 276 275 274 273 271 269 267 265 264 263 263 263 263 262 262 262
283 284 284 284 284 284 284 284 285 285 286 286 287 287 287 288 289 290 290 291 291 291 292 293 293 294 294 295 295 295 296 297 297 297 297 298 298 298 299 298 298 299 298 298 298 297 295 293 292 291 290 288 286 284 281 279 277 276 275 274 273 273 272 271 270 268 266 264 262 262 262 262 261 261
281 282 283 284 284 284 284 284 285 286 287 287 288 288 289 289 289 289 289 289 290 290 291 291 292 292 293 293 294 295 295 296 296 296 297 298 299 299 299 299 299 299 298 299 298 296 294 293 292 292 290 288 287 284 281 279 277 275 274 274 274 273 273 272 271 270 268 267 265 263 262 261 261 261
280 281 282 283 284 284 284 285 286 287 288 289 290 290 289 288 287 287 287 287 288 288 289 289 290 291 292 293 294 294 295 295 296 297 298 299 300 299 299 299 299 299 299 298 297 295 293 293 293 292 290 288 286 284 282 279 277 275 274 274 275 274 273 273 272 271 270 268 267 266 265 264 263 262
280 281 283 283 283 283 283 284 284 285 286 287 288 288 287 287 287 286 287 287 287 288 289 290 291 292 293 293 294 294 295 296 297 298 299 300 300 299 299 299 299 299 299 298 297 295 294 293 293 292 290 289 287 285 283 281 278 277 275 274 274 274 274 273 272 271 270 269 267 267 266 266 265 264
282 284 284 284 283 283 283 283 283 284 284 285 286 286 286 286 286 286 287 288 288 289 291 291 292 292 293 293 293 294 295 296 297 298 298 298 298 298 298 298 298 297 298 298 297 296 295 294 293 292 290 289 288 287 285 282 281 279 278 276 274 274 274 274 273 272 271 269 268 266 265 265 265 265
283 284 285 285 284 283 283 283 284 285 285 286 286 287 287 287 287 287 287 288 289 290 290 291 291 292 292 292 293 293 294 295 296 297 297 296 296 296 296 296 296 296 296 296 296 295 294 293 292 291 290 289 288 287 286 284 282 280 278 277 276 275 274 273 273 272 271 271 269 268 266 265 265 264
284 285 287 288 286 285 284 284 285 285 285 286 286 286 286 286 286 286 287 288 289 289 290 290 290 290 291 291 292 293 294 294 295 294 294 294 294 293 293 294 294 294 294 294 293 292 291 291 290 289 288 287 286 285 285 284 282 281 279 277 276 276 275 274 272 272 271 270 270 269 267 266 265 265
285 288 290 290 288 286 285 285 285 285 285 285 286 286 285 285 286 287 288 289 289 289 290 290 290 290 291 291 292 292 293 293 293 292 292 292 292 292 291 291 291 290 291 290 290 290 290 289 288 288 287 286 285 284 284 284 283 282 281 279 277 276 275 274 273 272 271 270 269 268 267 266 266 265
287 289 291 291 288 286 285 284 285 285 285 286 286 287 288 289 290 290 290 290 290 290 290 290 291 291 291 291 291 292 292 292 292 292 292 291 291 290 290 289 289 290 290 291 291 291 290 289 288 288 287 286 285 285 285 285 284 283 282 280 278 276 275 273 273 272 271 270 269 268 266 265 264 264
290 291 291 288 285 284 283 284 284 284 285 286 287 289 290 291 292 291 291 290 291 291 291 291 291 291 291 291 290 291 291 292 292 292 292 291 291 291 291 290 291 293 294 295 294 293 292 290 289 289 288 288 288 288 288 287 285 284 283 282 281 279 277 275 273 272 271 270 269 268 267 265 263 262
291 291 288 284 282 283 283 284 285 286 287 288 290 291 291 291 291 290 290 290 290 291 291 290 290 290 290 290 291 292 292 293 294 294 293 293 293 293 293 294 296 297 298 297 296 294 293 293 293 293 294 294 294 294 293 291 290 288 286 284 282 280 278 275 271 270 270 269 268 268 267 265 263 261
287 286 283 282 283 284 285 286 286 288 289 290 291 291 290 289 289 288 288 288 289 289 289 290 290 291 293 294 294 295 295 296 296 296 296 295 295 296 297 299 300 300 301 301 300 299 299 300 300 299 299 299 298 297 296 295 296 296 292 286 281 278 276 274 272 271 271 271 270 269 267 265 262 259
285 284 284 285 286 286 286 287 287 289 290 290 289 288 287 286 286 287 287 288 289 290 291 293 294 295 296 297 298 299 299 300 300 299 298 297 298 299 301 304 306 306 308 309 307 303 302 302 301 301 301 301 301 299 295 294 296 298 295 289 281 276 275 275 275 276 276 276 275 272 268 264 260 257
287 288 288 287 287 286 286 286 287 288 288 287 285 284 283 284 285 287 288 290 292 294 296 297 297 298 300 302 303 303 303 302 302 301 300 299 300 302 305 308 310 310 311 313 310 307 305 304 303 303 304 303 303 302 298 295 295 296 295 290 283 277 274 275 278 281 283 284 281 277 272 267 263 261
288 288 288 287 286 286 285 286 286 285 283 280 280 280 282 284 286 288 291 294 296 297 298 299 301 303 305 307 308 307 306 304 303 302 300 300 302 305 307 308 309 308 309 313 314 312 310 309 307 306 304 302 302 302 300 297 295 294 293 291 286 278 274 276 280 283 285 285 284 282 278 271 263 259
288 287 287 286 285 284 285 285 283 280 276 276 278 281 284 287 290 293 296 297 298 299 301 304 306 308 310 312 313 312 309 307 305 304 302 303 304 304 302 303 304 304 307 312 314 313 313 313 312 311 310 306 303 303 301 298 294 292 290 290 287 280 275 277 283 285 284 283 283 283 281 266 249 248
288 287 286 285 285 285 284 282 279 277 276 277 280 284 288 291 294 295 297 299 301 303 306 308 310 314 317 319 319 317 314 311 309 307 307 307 305 301 299 301 302 303 306 311 313 313 315 317 318 319 320 316 311 309 305 298 292 290 287 288 287 281 275 278 286 287 285 281 277 274 270 256 248 252
289 287 285 284 285 283 279 274 273 276 278 280 284 288 291 293 295 297 301 303 305 307 309 312 317 322 325 326 325 323 319 315 313 313 313 313 309 305 304 303 301 303 308 312 314 315 316 319 322 324 325 322 317 315 310 302 295 290 287 287 286 276 268 272 279 276 272 269 266 265 264 258 256 260
286 284 284 284 282 276 271 270 274 277 280 283 287 289 291 294 298 303 305 306 307 309 313 319 325 329 330 331 331 329 324 319 316 317 319 318 315 310 306 302 302 306 312 315 316 315 315 318 323 326 328 327 323 319 314 309 303 294 288 285 277 263 259 266 266 259 261 266 270 271 268 261 260 262
281 282 284 281 272 267 270 274 276 278 281 284 287 289 293 299 304 306 306 307 309 313 319 326 331 333 334 335 334 331 325 320 318 318 319 319 316 311 308 308 309 313 317 319 316 314 315 318 323 327 330 331 331 325 317 311 305 296 288 282 267 251 251 257 253 252 260 267 271 270 262 259 266 269
278 282 281 273 264 267 272 274 275 278 280 283 288 293 299 304 306 307 307 310 315 319 323 329 333 337 338 337 335 333 327 320 317 317 317 317 316 313 312 313 312 314 321 324 319 313 311 315 321 324 326 330 334 332 323 314 305 295 286 277 261 242 237 243 252 259 261 259 258 257 254 260 268 270
275 275 270 263 265 270 270 270 271 274 278 283 291 297 303 305 306 307 311 316 320 323 326 330 335 339 341 340 338 335 330 323 319 317 316 316 317 314 312 310 309 315 325 329 325 317 312 314 318 319 318 323 331 335 330 320 310 298 286 275 262 252 246 245 254 260 252 240 242 252 260 269 274 275
271 266 260 262 265 264 262 263 266 270 277 286 294 299 302 304 306 310 316 323 326 328 329 332 335 339 341 342 340 337 333 327 322 319 318 317 315 311 306 306 311 320 329 331 327 323 320 320 320 318 315 317 327 335 334 328 318 304 288 275 265 263 262 257 254 250 235 224 235 255 267 276 286 292
262 258 257 258 256 253 252 255 260 268 278 288 294 297 300 304 309 315 322 330 334 334 334 335 336 338 341 343 343 341 338 333 327 323 321 319 315 310 307 307 314 323 327 324 323 324 326 326 325 323 320 319 326 336 337 331 321 306 290 276 263 259 258 251 239 228 222 227 244 262 275 288 311 321
256 253 248 245 243 242 243 248 256 265 276 286 292 294 300 308 315 320 329 338 341 340 339 338 338 340 342 344 345 344 344 341 336 330 327 325 322 316 309 307 316 325 324 320 323 331 334 331 327 326 326 325 331 339 340 332 322 309 294 281 266 252 245 234 218 211 219 236 255 273 288 306 347 339